Location: Saint-Durec
(47.9167°N, 3.4333°W)
Time: 19:27:38
(UTC+00:00)

Daily predictions for brighter satellites

Satellite Brightness Start Highest point End
(mag) Time Altitude Azimuth Time Altitude Azimuth Time Altitude Azimuth
Cosmos 2184 Rocket 4.3 18:25:38 10° SSW 18:31:48 75° W 18:38:04 10° N
CENTAUR R/B 4.0 18:31:19 10° SE 18:33:42 13° ESE 18:36:14 10° ENE
ATLAS CENTAUR R/B 1.4 18:30:58 10° SW 18:34:35 68° NW 18:38:17 10° NE
Meteor 2-12 Rocket 4.4 18:30:37 10° S 18:36:39 71° E 18:42:44 10° NNE
Cosmos 1666 3.2 18:38:31 10° SSE 18:41:55 34° E 18:45:20 10° NNE
USA 308 3.8 18:37:54 10° WNW 18:41:56 39° N 18:45:58 10° E
Cosmos 1703 Rocket 3.7 18:38:40 10° N 18:42:59 54° ENE 18:47:15 10° SSE
Cosmos 2322 4.0 18:39:14 10° S 18:44:40 48° ESE 18:50:09 10° NE
CZ-2C R/B 3.9 18:39:22 10° S 18:44:56 61° W 18:50:16 10° NNW
CSL-04 Rocket 4.0 18:40:40 10° SE 18:45:56 47° ENE 18:51:10 10° N
Cosmos 1844 Rocket 3.1 18:41:02 10° NNW 18:46:35 70° WSW 18:52:06 10° SSE
BREEZE-M DEB (TANK) 4.5 18:46:57 10° S 18:48:31 15° SE 18:50:06 10° E
Okean-O 2.6 18:44:33 10° SSE 18:48:58 73° ENE 18:53:24 10° N
Cosmos 1933 Rocket 3.5 18:46:05 10° S 18:50:26 77° E 18:54:52 10° NNE
Cosmos 1777 Rocket 4.0 18:46:01 10° NNW 18:51:14 65° ENE 18:56:24 10° SSE
Cosmos 2366 rocket 4.5 18:46:10 10° SSE 18:51:56 39° E 18:57:45 10° NNE
H-2A R/B 2.2 18:47:34 10° SSE 18:53:02 89° WSW 18:58:30 10° NNW
CSL-04 Debris 4.3 18:48:11 10° SSE 18:53:30 58° ENE 18:58:53 10° N
SJ-6B 4.3 18:53:08 10° ESE 18:56:07 20° ENE 18:59:04 10° NNE
Ariane Rocket 4.2 18:55:55 10° ESE 18:59:52 23° ENE 19:03:50 10° N
USA 186 2.9 18:59:37 15° E 19:00:19 16° ENE 19:02:05 10° NNE
Cosmos 1500 3.6 18:57:43 10° SSW 19:01:26 65° WNW 19:05:09 10° N
OBJECT-B 2.6 19:02:09 14° E 19:03:00 15° ENE 19:04:58 10° NNE
Meteor 1-11 Rocket 4.0 19:00:22 10° SSE 19:05:43 45° E 19:11:00 10° NNE
SJ-11-01 4.5 19:01:14 10° S 19:05:55 79° WSW 19:10:39 10° NNW
Okean 1-7 3.0 19:02:46 10° N 19:07:09 90° WNW 19:11:28 10° S
PSLV R/B 3.8 19:04:03 10° NNE 19:08:09 84° ESE 19:12:12 10° SSW
Cosmos 2360 Rocket 2.8 19:03:21 10° SW 19:08:56 62° WNW 19:14:36 10° NNE
YAOGAN 1 3.0 19:05:36 10° S 19:09:53 66° WSW 19:14:13 10° NNW
FALCON 9 DEB 2.9 19:08:30 10° WNW 19:11:41 71° NNE 19:13:45 20° ESE
SAR-Lupe-4 3.5 19:08:57 10° NNE 19:12:32 69° ESE 19:16:06 10° S
Cosmos 1943 Rocket 4.1 19:09:57 10° N 19:12:40 13° NNE 19:15:23 10° ENE
Meteor 1-13 Rocket 4.3 19:08:27 10° N 19:14:25 73° ENE 19:20:13 10° SSE
Cosmos 2341 Rocket 4.0 19:09:08 10° S 19:15:26 86° E 19:21:43 10° N
Cosmos 2333 4.2 19:09:54 10° SSW 19:15:33 88° ESE 19:21:20 10° NNE
SJ 16-02 1.8 19:11:31 10° N 19:15:44 42° ENE 19:19:19 13° SE
Cosmos 1727 Rocket 4.2 19:10:25 10° N 19:16:23 46° ENE 19:22:19 10° SSE
Cosmos 2237 Rocket 3.2 19:12:09 10° SSE 19:16:28 23° E 19:20:47 10° NE
Cosmos 2278 Rocket 2.6 19:12:14 10° NNW 19:17:41 45° NE 19:22:11 15° SE
Cosmos 1544 4.2 19:15:06 10° SE 19:17:59 22° E 19:20:52 10° NE
DMSP B5D2-2 4.4 19:13:04 10° NNE 19:18:02 41° E 19:22:56 10° SSE
FALCON 9 DEB 2.8 19:16:23 10° WNW 19:19:34 88° NNE 19:21:22 23° ESE
SL-4 R/B 2.6 19:16:51 10° WNW 19:20:11 40° SW 19:22:57 13° SSE
Cosmos 1536 3.0 19:16:26 10° SSE 19:20:15 45° E 19:24:04 10° NNE
Okean 3 3.4 19:16:06 10° N 19:20:22 64° ENE 19:24:38 10° SSE
Meteor 1-5 Rocket 4.3 19:17:31 10° SSW 19:22:56 79° WNW 19:28:35 10° N
SeaSat 1 2.7 19:20:32 10° NE 19:25:16 44° ESE 19:29:58 10° S
Abrixas rocket 2.5 19:23:31 10° W 19:25:50 37° SSW 19:26:46 26° SSE
Cosmos 2218 Rocket 4.0 19:19:45 10° S 19:26:06 70° E 19:32:28 10° NNE
Cosmos 864 Rocket 4.4 19:23:56 10° S 19:30:02 70° E 19:36:16 10° NNE
MetOp-A 4.2 19:25:07 10° SSE 19:30:22 60° ENE 19:35:40 10° N
Resurs 01 Rocket 3.1 19:31:41 19° ENE 19:31:57 19° ENE 19:35:01 10° NNE
SME Rocket 4.2 19:25:43 10° NNE 19:32:31 42° E 19:37:10 10° SSE
SAR-Lupe-1 4.5 19:29:23 10° N 19:32:57 65° WNW 19:36:31 10° SSW
Gbstr 26 Del rocket 3.4 19:30:32 10° WNW 19:35:06 70° NNE 19:38:18 25° E
Cosmos 1959 Rocket 4.4 19:29:10 10° S 19:35:15 78° E 19:41:24 10° NNE
Helios 1A Rocket 3.5 19:31:42 10° S 19:35:40 58° WSW 19:39:40 10° NNW
Cosmos 2333 Rocket 2.3 19:30:49 10° SSW 19:36:30 82° WNW 19:42:17 10° NNE
USA 234 4.0 19:33:09 19° E 19:36:47 30° SE 19:42:25 10° S
Lacrosse 4 Rocket 1.8 19:33:44 10° SW 19:38:08 69° WNW 19:42:38 10° NNE
Cosmos 1937 Rocket 4.5 19:33:59 10° N 19:38:25 28° NE 19:39:49 24° E
GP-B 3.9 19:34:55 10° SSW 19:39:16 55° W 19:43:39 10° N
ERBS 4.5 19:38:37 10° NW 19:40:53 17° N 19:42:16 14° NNE
USA 238 DEB 3.8 19:36:24 10° SSW 19:42:37 49° ESE 19:49:08 10° NE
USA 238 3.8 19:36:31 10° SSW 19:42:44 48° ESE 19:49:14 10° NE
Cosmos 2322 Rocket 4.4 19:38:35 10° W 19:43:08 25° NW 19:47:44 10° N
DELTA 2 R/B (1) 4.5 19:39:29 10° SW 19:44:25 33° S 19:46:36 24° SE
ARGOS 4.2 19:39:54 10° S 19:45:08 48° W 19:50:25 10° NNW
CZ-4 R/B 3.9 19:42:16 10° SW 19:45:21 22° W 19:48:30 10° NW
Cosmos 1869 Rocket 3.9 19:41:28 10° SSW 19:45:49 68° WNW 19:50:14 10° N
Resurs 1-3 4.2 19:45:27 32° E 19:46:30 37° ENE 19:50:34 10° N
Cosmos 1689 Rocket 4.2 19:45:07 10° N 19:47:40 29° WNW 19:50:13 10° SW
FALCON 9 DEB 3.4 19:45:05 10° WNW 19:48:11 53° SSW 19:48:55 41° SSE
ERS-2 3.5 19:45:20 10° N 19:48:48 41° WNW 19:52:15 10° SW
IRS-1A Rocket 4.2 19:46:16 16° SE 19:50:39 61° ENE 19:56:07 10° N
Cosmos 2219 Rocket 2.5 19:47:10 10° SW 19:52:45 70° WNW 19:58:23 10° NNE
Cosmos 1378 3.4 19:49:52 10° NNW 19:53:35 67° W 19:57:15 10° S
CREW DRAGON DEMO-1 DEB 2.7 19:52:40 10° WSW 19:55:13 70° SW 19:55:13 70° SW
Cosmos 1238 Rocket 2.5 19:51:37 10° S 19:55:41 88° E 19:59:07 10° N
CZ-2C R/B 3.1 19:50:42 10° N 19:56:06 65° WNW 20:01:21 10° SSW
USA 305 2.9 19:53:24 10° WNW 19:57:41 71° NNE 19:58:46 47° E
FALCON 9 DEB 3.3 19:54:37 10° WNW 19:57:46 54° SSW 19:58:06 50° S
Cosmos 1980 3.8 19:55:26 10° S 20:00:52 51° ESE 20:06:20 10° NE
Cosmos 1733 Rocket 2.9 19:58:42 10° S 20:02:59 62° E 20:07:19 10° NNE
COSMOS 2428 3.1 20:02:11 10° SW 20:07:50 65° WNW 20:13:31 10° NNE
NOSS 3-2 (A) 3.2 20:05:42 10° SW 20:11:19 82° SE 20:17:53 10° NE
USA 307 2.7 20:07:11 10° WNW 20:11:28 80° NNE 20:12:00 67° E
USA 306 2.7 20:08:25 10° WNW 20:12:44 84° NNE 20:13:13 69° ESE
ATLAS CENTAUR R/B 4.0 20:12:17 10° WNW 20:14:11 13° NNW 20:16:06 10° N
Cosmos 1743 2.7 20:11:44 10° S 20:15:36 84° W 20:19:32 10° N
Cosmos 2369 Rocket 3.8 20:13:44 10° N 20:17:43 19° NE 20:18:00 19° NE
Cosmos 1898 Rocket 3.4 20:13:02 10° NNW 20:18:17 72° ENE 20:19:30 52° SE
NOSS 0 Rocket 3.8 20:15:00 10° SSW 20:21:09 85° ESE 20:27:21 10° NNE
USA 308 2.7 20:18:00 10° WNW 20:22:18 89° SW 20:22:24 86° SE
CENTAUR R/B 2.4 20:16:54 10° SSW 20:22:44 69° SE 20:29:44 10° NE
SJ-6B 4.0 20:28:21 23° SSW 20:30:29 43° W 20:34:20 10° NNW
ASTEX 1 4.0 20:26:00 10° N 20:30:47 55° W 20:35:32 10° SSW
USA 186 4.2 20:31:10 17° W 20:31:10 17° W 20:32:51 10° NW
Cosmos 1674 Rocket 3.5 20:28:00 10° N 20:32:20 82° W 20:32:24 81° WSW
OBJECT-B 2.4 20:35:13 34° W 20:35:13 34° W 20:37:59 10° NNW
ARIANE 5 R/B 4.4 20:39:17 22° NNE 20:39:17 22° NNE 20:41:15 10° N
Ariane Rocket 3.5 20:35:45 26° S 20:38:28 57° W 20:43:30 10° NNW
Cosmos 990 Rocket 4.2 20:33:20 10° NNW 20:38:29 67° WSW 20:39:46 49° S
Cosmos 1763 Rocket 3.4 20:37:31 10° SSW 20:42:50 86° ESE 20:48:11 10° NNE
Cosmos 2297 3.9 20:39:10 10° NNW 20:44:36 56° NE 20:44:36 56° NE
MetOp-B 4.2 20:45:40 60° NE 20:45:40 60° NE 20:50:29 10° N
Cosmos 1378 Rocket 3.9 20:42:20 10° NNW 20:46:26 66° WNW 20:46:26 66° WNW
NOSS 3-2 (C) 3.3 20:47:28 10° SW 20:53:08 88° WNW 20:55:56 36° NE
SJ 16-02 3.5 20:50:36 10° NW 20:54:03 23° W 20:56:21 15° SW
Cosmos 468 Rocket 4.1 20:49:23 10° SSW 20:54:42 73° WNW 21:00:00 10° NNE
Cosmos 1943 Rocket 2.8 20:52:21 10° NNW 20:56:58 45° NNE 20:56:58 45° NNE
Cosmos 2237 Rocket 2.5 20:54:21 10° SW 21:00:01 65° WNW 21:05:43 10° NNE
Cosmos 1535 Rocket 4.4 21:00:59 80° SE 21:01:13 82° E 21:07:36 10° N
Cosmos 2278 Rocket 3.6 20:56:35 10° NW 21:01:37 33° WSW 21:04:05 23° SSW
SeaSat 1 4.0 20:58:15 10° NNE 21:02:40 34° NW 21:07:05 10° WSW
SPOT 3 Rocket 3.8 21:05:03 66° W 21:05:03 66° W 21:10:13 10° NNW
Meteor 1-21 4.3 20:59:34 10° NNW 21:05:18 75° W 21:05:27 75° WSW
Resurs 01 Rocket 2.8 21:09:15 41° NW 21:09:15 41° NW 21:12:24 10° NNW
USA 245 4.5 21:12:27 70° N 21:12:27 70° N 21:18:04 10° NNW
SPOT 1/Viking Rocket 4.4 21:14:33 44° N 21:14:33 44° N 21:18:05 10° NNW
Cosmos 1934 Rocket 4.0 21:14:32 73° WSW 21:14:54 75° W 21:21:05 10° N
Lacrosse 4 Rocket 4.4 21:15:05 10° WNW 21:17:41 15° NW 21:20:18 10° N
USA 234 3.1 21:20:31 85° SW 21:20:31 85° SW 21:26:53 10° WSW
Cosmos 1937 Rocket 4.3 21:15:40 10° NNW 21:20:01 46° W 21:20:01 46° W
Cosmos 2123 Rocket 4.4 21:19:01 10° NNW 21:25:06 57° W 21:25:45 54° WSW
USA 238 DEB 4.4 21:27:13 10° WSW 21:33:37 48° NW 21:40:22 10° NE
USA 238 4.4 21:27:19 10° WSW 21:33:43 48° NW 21:40:28 10° NE
Terra 4.1 21:39:46 17° N 21:39:46 17° N 21:40:56 10° N
Cosmos 2369 Rocket 3.7 21:56:58 10° NNW 21:59:48 31° NNW 21:59:48 31° NNW
CENTAUR R/B 3.8 22:08:07 10° W 22:13:59 38° NNW 22:20:54 10° NE
USA 281 4.5 22:40:59 35° NNW 22:40:59 35° NNW 22:44:32 10° NNW
Cosmos 1943 Rocket 4.4 22:36:32 10° NW 22:38:29 19° WNW 22:38:29 19° WNW
